Skip Page Navigation
NASA JPL Caltech
NASA Logo - Jet Propulsion Laboratory + View the NASA Portal
+ Center for Near-Earth Object Studies
JPL Home Earth Solar System Stars & Galaxies Technology
JPL Solar System Dynamics
BODIES ORBITS EPHEMERIDES TOOLS PHYSICAL DATA DISCOVERY FAQ SITE MAP
IMPORTANT: The SSD Announcement email list is now available. Major changes are coming in the near future, including possible hostname and/or URL changes. To be notified of such changes, subscribe to this email list.

Please visit this page for more details.


JPL Small-Body Database Browser
Search: [ help ]  
136488 (2005 GS119)
Classification: Main-belt Asteroid          SPK-ID: 2136488
Ephemeris | Orbit Diagram | Orbital Elements | Mission Design | Physical Parameters | Discovery Circumstances ]

[ show orbit diagram ]
Orbital Elements at Epoch 2458600.5 (2019-Apr-27.0) TDB
Reference: JPL 19 (heliocentric ecliptic J2000)
 Element Value Uncertainty (1-sigma)   Units 
e .1409504781795986 4.6899e-08  
a 3.062620614971261 2.9392e-08 au
q 2.630942774808366 1.4817e-07 au
i 27.66198209015081 5.9714e-06 deg
node 153.49491682 1.1278e-05 deg
peri 130.2016358723577 2.3724e-05 deg
M 168.5119619824333 2.1697e-05 deg
tp 2457684.139282805771
(2016-Oct-22.63928281)
0.00011372 TDB
period 1957.664336163341
5.36
2.8181e-05
7.716e-08
d
yr
n .1838926078132134 2.6472e-09 deg/d
Q 3.494298455134157 3.3534e-08 au
  Orbit Determination Parameters
   # obs. used (total)      509  
   data-arc span      6787 days (18.58 yr)  
   first obs. used      2000-06-12  
   last obs. used      2019-01-11  
   planetary ephem.      DE431  
   SB-pert. ephem.      SB431-N16  
   condition code      0  
   norm. resid. RMS      .59685  
   source      ORB  
   producer      Otto Matic  
   solution date      2019-Jul-14 03:09:53  

Additional Information
 Earth MOID = 1.67766 au 
 Jupiter MOID = 2.0362 au 
 T_jup = 3.044 
[ show covariance matrix ]

Ephemeris | Orbit Diagram | Orbital Elements | Mission Design | Physical Parameters | Discovery Circumstances ]

Physical Parameter Table
Parameter Symbol Value Units Sigma Reference Notes
absolute magnitude H 14.7   n/a MPO436672  
diameter diameter 5.874 km 0.092 urn:nasa:pds:neowise_diameters_albedos::2.0[mainbelt] (http://adsabs.harvard.edu/abs/2011ApJ...741...68M)  
geometric albedo albedo 0.089   0.013 urn:nasa:pds:neowise_diameters_albedos::2.0[mainbelt] (http://adsabs.harvard.edu/abs/2011ApJ...741...68M)  

136488 (2005 GS119)          Discovered 2005-Apr-07 by CSS at Catalina
Reference: 20060907/Numbers.arcLast Updated: 2006-09-10

Alternate Designations
 2005 GS119 = 2004 FX47 
Ephemeris | Orbit Diagram | Orbital Elements | Mission Design | Physical Parameters | Discovery Circumstances ]
ABOUT SSD CREDITS/AWARDS PRIVACY/COPYRIGHT GLOSSARY LINKS
FirstGov
(server date/time)  
NASA Home Page
Site Manager:   Ryan S. Park
Webmaster  Alan B. Chamberlin